Content
SEND FEEDBACK

Turkmenistan Flag

ASHGABAT, TURKMENISTAN


Home > Asia > Turkmenistan
Elevation: 775 feet     Latitude: 37 58N     Longitude: 058 20E

WEATHER
 
SELECT A DAY
Number of Records: 200,906;   Date Range: 3/15/97 - 3/22/16
 
SHARE

PRINT THIS DATA

[ ← Previous Day ]
WEATHER ALMANAC - JANUARY 18, 2014
[ Next Day → ]
[ °C ]   °F
Weather ElementAverageHighLow
Temperature42.3 °F53.6 °F (3:00 pm)35 °F (5:00 am)
Dewpoint28.8 °F34 °F (8:00 pm)24 °F (8:00 am)
Humidity57.3 %76 % (10:00 pm)31 % (2:00 pm)
Barometer30.14 in30.28 in (11:00 pm)30.04 in (1:00 am)
Wind Speed4.7 mph8.9 mph (4:00 pm)
Weather ElementAverage
Visibility6.2 mi
Wind DirectionSW (229.1 °)

Weather ElementTotal
Precipitation---
Heating Degree Days20.7 (Base 65)
Averaged from 35 records on January 18, 2014
WEATHER CONDITIONS BREAKOUT
WIND DIRECTION BREAKOUT
WEATHER BY HOUR - JANUARY 18, 2014
[ °C ]   °F
Local TimeTemperatureDewpointHumidityBarometerVisibilityWind DirectionWind SpeedGust SpeedPrecipitationEventsConditions
1:00 AM39.2 °F26.6 °F61 %30.04 in6.2 miSW (230°)4.5 mphMostly Cloudy
2:00 AM38.0 °F26.0 °F51 %30.08 in6.0 miSouth (190°)6.7 mphClear
2:00 AM39.2 °F24.8 °F56 %30.04 in6.2 miSSW (200°)6.7 mphScattered Clouds
3:00 AM35.6 °F24.8 °F65 %30.04 in6.2 miVariable2.2 mphClear
4:00 AM35.6 °F26.6 °F70 %30.06 in6.2 miWest (280°)6.7 mphClear
4:30 AM35.6 °F24.8 °F65 %30.06 in6.2 miSSW (210°)6.7 mphClear
5:00 AM35.0 °F26.0 °F58 %30.11 in6.0 miSouth (180°)4.5 mph
5:00 AM35.6 °F26.6 °F70 %30.06 in6.2 miSSW (200°)4.5 mphClear
5:30 AM35.6 °F24.8 °F65 %30.06 in6.2 miSouth (190°)6.7 mphClear
6:00 AM35.6 °F24.8 °F65 %30.06 in6.2 miSouth (190°)6.7 mphClear
6:30 AM37.4 °F24.8 °F60 %30.09 in6.2 miSW (230°)6.7 mphClear
7:00 AM35.6 °F24.8 °F65 %30.09 in6.2 miSW (230°)6.7 mphClear
7:30 AM35.6 °F24.8 °F65 %30.12 in6.2 miWest (270°)6.7 mphClear
8:00 AM37.0 °F24.0 °F47 %30.17 in6.0 miWest (260°)6.7 mphClear
8:00 AM35.6 °F24.8 °F65 %30.12 in6.2 miWest (260°)6.7 mphScattered Clouds
9:00 AM37.4 °F24.8 °F60 %30.15 in6.2 miWSW (250°)4.5 mphMostly Cloudy
10:00 AM44.6 °F28.4 °F53 %30.18 in6.2 miWNW (290°)4.5 mphMostly Cloudy
11:00 AM48.2 °F30.2 °F50 %30.21 in6.2 miNW (310°)6.7 mphMostly Cloudy
11:00 AM47.0 °F30.0 °F40 %30.22 in6.0 miNW (320°)4.5 mphClear
12:00 PM50.0 °F30.2 °F47 %30.18 in6.2 miNW (310°)6.7 mphOvercast
1:00 PM50.0 °F32.0 °F50 %30.15 in6.2 miWNW (290°)4.5 mphOvercast
2:00 PM51.0 °F29.0 °F31 %30.19 in6.0 miNorth (350°)2.2 mphOvercast
2:00 PM51.8 °F30.2 °F44 %30.15 in6.2 miNorth (360°)4.5 mphOvercast
3:00 PM53.6 °F30.2 °F41 %30.15 in6.2 miNNE (20°)4.5 mphOvercast
4:00 PM51.8 °F32.0 °F47 %30.18 in6.2 miNNW (330°)8.9 mphOvercast
5:00 PM50.0 °F32.0 °F50 %30.18 in6.2 miNNW (330°)6.7 mphOvercast
5:00 PM51.0 °F30.0 °F32 %30.22 in6.0 miNNW (330°)4.5 mphOvercast
6:00 PM48.2 °F32.0 °F54 %30.18 in6.2 miNorth (350°)4.5 mphOvercast
7:00 PM46.4 °F33.8 °F62 %30.21 in6.2 miNorth (350°)2.2 mphOvercast
8:00 PM44.0 °F34.0 °F58 %6.0 miCalmOvercast
8:00 PM42.8 °F33.8 °F70 %30.21 in6.2 miCalmOvercast
9:00 PM42.8 °F33.8 °F70 %30.21 in6.2 miCalmOvercast
10:00 PM41.0 °F33.8 °F76 %30.21 in6.2 miSSE (160°)4.5 mphOvercast
11:00 PM41.0 °F34.0 °F67 %30.28 in6.0 miNW (320°)2.2 mphOvercast
11:00 PM41.0 °F33.8 °F76 %30.24 in6.2 miCalmOvercast
Hourly data recorded from UTAA, located miles away from Ashgabat, Turkmenistan




STORIES FROM OUR PARTNERS